Satellite: ISS
Catalog number: 25544
Epoch time:      09329.02698647
Element set:      48
Inclination:      051.6439 deg
RA of node:       200.4034 deg
Eccentricity:    0.0007446
Arg of perigee:   015.9063 deg
Mean anomaly:     137.6737 deg
Mean motion:   15.75986051 rev/day
Decay rate:     7.5692e-04 rev/day^2
Epoch rev:           63129
Checksum:              321

Satellite: CO-58
Catalog number: 28895
Epoch time:      09327.63356092
Element set:    0450
Inclination:      098.0374 deg
RA of node:       213.5854 deg
Eccentricity:    0.0017419
Arg of perigee:   206.7113 deg
Mean anomaly:     153.3208 deg
Mean motion:   14.59817515 rev/day
Decay rate:       1.72e-06 rev/day^2
Epoch rev:           21699
Checksum:              325

Satellite: FALCON
Catalog number: 30776
Epoch time:      09327.95790901
Element set:    0710
Inclination:      035.4335 deg
RA of node:       209.9753 deg
Eccentricity:    0.0001425
Arg of perigee:   263.4685 deg
Mean anomaly:     096.5871 deg
Mean motion:   15.03374739 rev/day
Decay rate:       5.21e-06 rev/day^2
Epoch rev:           14915
Checksum:              311

Satellite: MAST
Catalog number: 31126
Epoch time:      09327.19178775
Element set:     738
Inclination:      097.9681 deg
RA of node:       014.5389 deg
Eccentricity:    0.0094959
Arg of perigee:   145.7312 deg
Mean anomaly:     215.0063 deg
Mean motion:   14.53532377 rev/day
Decay rate:        6.8e-07 rev/day^2
Epoch rev:           13813
Checksum:              323

Satellite: CAPE1
Catalog number: 31130
Epoch time:      09328.69640018
Element set:     750
Inclination:      097.9697 deg
RA of node:       013.8019 deg
Eccentricity:    0.0103179
Arg of perigee:   147.7488 deg
Mean anomaly:     213.0070 deg
Mean motion:   14.52107866 rev/day
Decay rate:        2.7e-07 rev/day^2
Epoch rev:           13798
Checksum:              306

Satellite: COMPASS
Catalog number: 32787
Epoch time:      09327.21053178
Element set:    0529
Inclination:      097.9242 deg
RA of node:       029.5311 deg
Eccentricity:    0.0014902
Arg of perigee:   233.8945 deg
Mean anomaly:     126.0881 deg
Mean motion:   14.81699850 rev/day
Decay rate:       5.68e-06 rev/day^2
Epoch rev:           08499
Checksum:              330

Satellite: AAUSAT2
Catalog number: 32788
Epoch time:      09327.16499092
Element set:    0524
Inclination:      097.9242 deg
RA of node:       029.5716 deg
Eccentricity:    0.0014377
Arg of perigee:   234.2419 deg
Mean anomaly:     125.7454 deg
Mean motion:   14.81829056 rev/day
Decay rate:       6.01e-06 rev/day^2
Epoch rev:           08499
Checksum:              330

Satellite: DO-64
Catalog number: 32789
Epoch time:      09328.73878341
Element set:     535
Inclination:      097.9282 deg
RA of node:       031.4033 deg
Eccentricity:    0.0014909
Arg of perigee:   227.8817 deg
Mean anomaly:     132.1129 deg
Mean motion:   14.81864969 rev/day
Decay rate:       5.68e-06 rev/day^2
Epoch rev:            8522
Checksum:              345

Satellite: CO-66
Catalog number: 32791
Epoch time:      09327.20478607
Element set:    0520
Inclination:      097.9238 deg
RA of node:       029.5552 deg
Eccentricity:    0.0015151
Arg of perigee:   233.4762 deg
Mean anomaly:     126.5051 deg
Mean motion:   14.81514118 rev/day
Decay rate:       2.17e-06 rev/day^2
Epoch rev:           08495
Checksum:              302

Satellite: RS-30
Catalog number: 32953
Epoch time:      09327.63961560
Element set:     460
Inclination:      082.4999 deg
RA of node:       157.4854 deg
Eccentricity:    0.0018660
Arg of perigee:   189.3344 deg
Mean anomaly:     170.7391 deg
Mean motion:   12.43003197 rev/day
Decay rate:        1.0e-07 rev/day^2
Epoch rev:            6820
Checksum:              306

Satellite: TACSAT-3
Catalog number: 35001
Epoch time:      09327.56543958
Element set:    0169
Inclination:      040.4557 deg
RA of node:       007.1160 deg
Eccentricity:    0.0024622
Arg of perigee:   269.8223 deg
Mean anomaly:     089.9769 deg
Mean motion:   15.39624519 rev/day
Decay rate:      4.633e-05 rev/day^2
Epoch rev:           02891
Checksum:              320

Satellite: PHARMSAT
Catalog number: 35002
Epoch time:      09327.53821732
Element set:    0151
Inclination:      040.4695 deg
RA of node:       006.2022 deg
Eccentricity:    0.0027417
Arg of perigee:   273.3049 deg
Mean anomaly:     086.4629 deg
Mean motion:   15.40342671 rev/day
Decay rate:      3.993e-05 rev/day^2
Epoch rev:           02891
Checksum:              278

Satellite: HAWKSAT1
Catalog number: 35003
Epoch time:      09327.45713555
Element set:    0162
Inclination:      040.4617 deg
RA of node:       005.4273 deg
Eccentricity:    0.0027178
Arg of perigee:   277.0447 deg
Mean anomaly:     082.7276 deg
Mean motion:   15.41448017 rev/day
Decay rate:      7.539e-05 rev/day^2
Epoch rev:           02892
Checksum:              296

Satellite: CP6
Catalog number: 35004
Epoch time:      09327.51600458
Element set:     145
Inclination:      040.4626 deg
RA of node:       005.0013 deg
Eccentricity:    0.0026453
Arg of perigee:   277.8060 deg
Mean anomaly:     081.9748 deg
Mean motion:   15.41622851 rev/day
Decay rate:      8.738e-05 rev/day^2
Epoch rev:            2892
Checksum:              286

